sat.trackr.live / text

‹ back to catalog

EUTELSAT KONNECT VHTS

NORAD 53765 · 2022-110A

PAYLOAD ACTIVE UNKNOWN

§ Identity

Operator
Country
EUTE
Launch date
2022-09-07
Launch site
FRGUI
Launch vehicle
Mass (kg)
RCS (m²)

Purposes: comms

External: N2YO · Heavens-Above · Gunter

§ Orbital elements

Epoch: 2026-09-19T03:17:53.924352Z

Period
1,436.11 min
Inclination
0.0554°
Eccentricity
0.0002855
Mean motion
1.00271180 rev/d
Perigee alt
35,774.7 km
Apogee alt
35,798.8 km
Semi-major
42,164.9 km
B*
0.0000e+0
RAAN
103.7799°
Arg perigee
42.6398°
Mean anomaly
263.8461°
Rev number
777

§ Raw data

EUTELSAT KONNECT VHTS1 53765U 22110A   26262.13742968  .00000013  00000+0  00000+0 0  99922 53765   0.0554 103.7799 0002855  42.6398 263.8461  1.00271180  7771

JSON: /api/v1/satellites/53765 · /tle

For live sub-satellite position, see the globe view (requires WebGL).

§ Visibility from observer

Set your observer location to see the next 7 days of passes ≥ 10°. The values pass through the URL so the page stays shareable.

No JS? Fill the form by hand. The geolocation button needs JavaScript.